User: anonymous   Login
Location: Unspecified
(0.0000°N, 0.0000°E)
Time: 23:21:12
(UTC+00:00)
Language:

USA 247 - Orbit

View from above orbital plane
View from above orbital plane
View from above satellite
View from above satellite

Ground track
Ground track

The orbit is defined by the following mean orbital elements,

1 39462U 13072A   26005.24431153 0.00000000  00000-0  00000-0 0    06
2 39462 122.9991 239.5418 0004000 230.1093 129.8907 13.41439400    08
Epoch (UTC): 05 January 2026 05:51:48
Eccentricity: 0.0004000
inclination: 122.9991°
perigee height: 1101 km
apogee height: 1107 km
right ascension of ascending node: 239.5418°
argument of perigee: 230.1093°
revolutions per day: 13.41439400
mean anomaly at epoch: 129.8907°

The dashed part of the orbit path shows where the satellite is in the earth's shadow,  

DLR